Location: Unspecified
(0.0000°N, 0.0000°E)
Time: 07:02:13
(UTC+00:00)

Vanguard 2 - All Passes

Search period start: 30 July 2014 00:00
Search period end: 09 August 2014 00:00
Orbit: 554 x 2948 km, 32.9° (Epoch: 29 July)

Date Brightness Start Highest point End Pass type
(mag) Time Alt. Az. Time Alt. Az. Time Alt. Az.
30 Jul - 00:06:53 10° NNE 00:09:32 11° NNE 00:12:24 10° NE visible
30 Jul - 02:10:58 10° NNW 02:23:11 36° NE 02:38:37 10° E visible
30 Jul - 04:20:00 10° NW 04:36:26 84° NE 04:54:05 10° SE visible
30 Jul - 06:33:33 10° W 06:50:03 44° SW 07:04:25 10° SSE daylight
30 Jul - 08:55:37 10° WSW 09:04:14 16° SSW 09:11:29 10° S daylight
30 Jul - 15:39:20 10° SSW 15:43:38 30° SSE 15:47:11 10° E daylight
30 Jul - 17:48:54 10° W 17:51:58 21° NNW 17:55:13 10° NNE daylight
31 Jul - 00:23:55 10° N 00:30:04 15° NNE 00:37:30 10° ENE visible
31 Jul - 02:29:54 10° NW 02:43:03 47° NE 02:59:48 10° ESE visible
31 Jul - 04:39:42 10° WNW 04:56:15 79° SW 05:13:45 10° SE visible
31 Jul - 06:54:49 10° W 07:10:08 34° SSW 07:23:26 10° SSE daylight
31 Jul - 09:19:50 10° SW 09:25:03 12° SSW 09:29:41 10° S daylight
31 Jul - 13:52:02 10° S 13:53:25 11° SSE 13:54:42 10° SSE daylight
31 Jul - 15:58:25 10° SW 16:03:11 63° SE 16:07:04 10° ENE daylight
31 Jul - 18:10:38 10° NW 18:11:37 11° NNW 18:12:37 10° NNW daylight
01 Aug - 00:42:04 10° NNW 00:50:17 21° NNE 01:00:52 10° ENE visible
01 Aug - 02:48:59 10° NW 03:02:47 60° NE 03:20:27 10° ESE visible
01 Aug - 04:59:41 10° WNW 05:16:07 63° SW 05:33:11 10° SE visible
01 Aug - 07:16:42 10° W 07:30:27 27° SSW 07:42:22 10° SSE daylight
01 Aug - 14:09:20 10° SSW 14:13:30 18° SSE 14:16:48 10° ESE daylight
01 Aug - 16:17:58 10° WSW 16:22:35 60° NW 16:26:27 10° NE daylight
02 Aug - 01:00:34 10° NNW 01:10:14 29° NE 01:23:17 10° E visible
02 Aug - 03:08:15 10° NW 03:22:30 76° NE 03:40:41 10° ESE visible
02 Aug - 05:20:03 10° WNW 05:36:07 50° SSW 05:52:27 10° SE visible
02 Aug - 07:39:16 10° WSW 07:51:03 21° SSW 08:01:17 10° SSE daylight
02 Aug - 14:27:55 10° SSW 14:33:25 29° SSE 14:37:23 10° E daylight
02 Aug - 16:38:03 10° W 16:41:56 28° NW 16:45:21 10° NNE daylight
03 Aug - 01:19:17 10° NNW 01:29:57 39° NE 01:44:56 10° E visible
03 Aug - 03:27:43 10° NW 03:42:15 86° SW 04:00:33 10° SE visible
03 Aug - 05:40:52 10° W 05:56:16 40° SSW 06:11:37 10° SSE visible
03 Aug - 08:02:27 10° SW 08:11:57 17° SSW 08:20:16 10° SSE daylight
03 Aug - 12:38:27 10° SSW 12:42:30 14° SSE 12:45:48 10° SE daylight
03 Aug - 14:46:59 10° SW 14:53:06 53° SSE 14:57:20 10° ENE daylight
03 Aug - 16:59:03 10° WNW 17:01:19 14° NW 17:03:28 10° N daylight
03 Aug - 23:33:15 10° N 23:38:07 14° NE 23:44:02 10° ENE visible
04 Aug - 01:38:11 10° NW 01:49:33 51° NE 02:05:56 10° ESE visible
04 Aug - 03:47:28 10° WNW 04:02:05 70° SW 04:20:09 10° SE visible
04 Aug - 06:02:14 10° W 06:16:39 31° SSW 06:30:43 10° SSE daylight
04 Aug - 08:25:58 10° SW 08:33:07 14° SSW 08:39:29 10° SSE daylight
04 Aug - 12:56:42 10° SSW 13:02:46 21° SSE 13:07:10 10° ESE daylight
04 Aug - 15:06:28 10° WSW 15:12:35 81° NW 15:16:49 10° NE daylight
04 Aug - 23:51:02 10° N 23:57:59 21° NE 00:07:19 10° E visible
05 Aug - 01:57:16 10° NW 02:09:06 67° NE 02:26:26 10° ESE visible
05 Aug - 04:07:32 10° WNW 04:22:05 55° SSW 04:39:34 10° SE visible
05 Aug - 06:24:12 10° WSW 06:37:19 25° SSW 06:49:50 10° SSE daylight
05 Aug - 08:49:08 10° SSW 08:54:28 12° S 08:59:16 10° SSE daylight
05 Aug - 11:05:56 10° SSW 11:10:27 13° S 11:14:15 10° SE daylight
05 Aug - 13:15:28 10° SSW 13:22:49 31° SSE 13:27:43 10° E daylight
05 Aug - 15:26:24 10° WSW 15:31:54 41° NW 15:35:53 10° NNE daylight
06 Aug - 00:09:23 10° NNW 00:17:36 30° NE 00:29:28 10° E visible
06 Aug - 02:16:33 10° NW 02:28:43 85° NE 02:46:31 10° SE visible
06 Aug - 04:28:00 10° W 04:42:16 44° SSW 04:58:51 10° SE visible
06 Aug - 06:46:44 10° WSW 06:58:17 20° SSW 07:09:05 10° SSE daylight
06 Aug - 09:10:56 10° SSW 09:15:51 12° S 09:20:14 10° SSE daylight
06 Aug - 11:24:22 10° SSW 11:31:06 17° SSE 11:36:14 10° SE daylight
06 Aug - 13:34:36 10° SW 13:42:41 49° SSE 13:47:44 10° ENE daylight
06 Aug - 15:46:57 10° W 15:51:08 22° NW 15:54:28 10° NNE daylight
07 Aug - 00:28:02 10° NNW 00:37:03 41° NE 00:50:51 10° ESE visible
07 Aug - 02:36:05 10° WNW 02:48:27 76° SW 03:06:18 10° SE visible
07 Aug - 04:48:56 10° W 05:02:40 34° SSW 05:18:04 10° SSE visible
07 Aug - 07:09:39 10° SW 07:19:31 17° SSW 07:28:38 10° SSE daylight
07 Aug - 09:31:11 10° SSW 09:37:08 13° S 09:42:14 10° SSE daylight
07 Aug - 11:43:07 10° SSW 11:51:32 24° SSE 11:57:24 10° ESE daylight
07 Aug - 13:54:03 10° SW 14:02:17 82° SE 14:07:19 10° ENE daylight
07 Aug - 16:08:56 10° WNW 16:10:25 11° NW 16:11:48 10° NNW daylight
07 Aug - 22:42:45 10° NNE 22:46:22 13° NE 22:50:41 10° ENE night (unlit)
08 Aug - 00:46:56 10° NW 00:56:27 56° NE 01:11:38 10° ESE visible
08 Aug - 02:55:55 10° WNW 03:08:23 60° SSW 03:25:50 10° SE visible
08 Aug - 05:10:24 10° WSW 05:23:20 27° SSW 05:37:18 10° SSE visible
08 Aug - 07:32:27 10° SW 07:40:58 15° S 07:48:45 10° SSE daylight
08 Aug - 09:50:36 10° SSW 09:58:13 16° S 10:04:22 10° SE daylight
08 Aug - 12:02:05 10° SW 12:11:45 33° SSE 12:17:57 10° E daylight
08 Aug - 14:13:53 10° WSW 14:21:40 60° NW 14:26:32 10° NE daylight
08 Aug - 23:00:12 10° N 23:05:57 20° NE 23:13:48 10° E night (unlit)
